TimeEDT,TemperatureF,Dew PointF,Humidity,Sea Level PressureIn,VisibilityMPH,Wind Direction,Wind SpeedMPH,Gust SpeedMPH,PrecipitationIn,Events,Conditions,WindDirDegrees,DateUTC
12:46 AM,78.8,73.4,83,30.17,10.0,ENE,12.7,20.7,0.02,,Overcast,60,2013-08-25 04:46:00
12:53 AM,78.1,73.0,84,30.17,10.0,ENE,12.7,20.7,0.02,,Overcast,70,2013-08-25 04:53:00
1:53 AM,75.9,73.0,91,30.17,9.0,NNE,10.4,-,0.01,,Overcast,30,2013-08-25 05:53:00
2:12 AM,75.2,73.4,94,30.17,10.0,NNE,10.4,-,N/A,Thunderstorm,Overcast,30,2013-08-25 06:12:00
2:27 AM,75.2,73.4,94,30.17,10.0,NNE,8.1,-,N/A,,Overcast,30,2013-08-25 06:27:00
2:53 AM,77.0,73.0,88,30.16,10.0,ENE,12.7,19.6,N/A,,Overcast,60,2013-08-25 06:53:00
3:53 AM,75.9,73.0,91,30.16,7.0,NNE,8.1,-,0.02,Rain,Light Rain,20,2013-08-25 07:53:00
4:10 AM,75.2,73.4,94,30.16,6.0,NNE,9.2,23.0,0.01,Rain-Thunderstorm,Light Rain,20,2013-08-25 08:10:00
4:15 AM,75.2,71.6,89,30.16,2.5,NNE,17.3,23.0,0.08,Rain-Thunderstorm,Heavy Rain,30,2013-08-25 08:15:00
4:20 AM,75.2,71.6,89,30.16,1.8,East,18.4,24.2,0.14,Rain,Heavy Rain,80,2013-08-25 08:20:00
4:25 AM,75.2,71.6,89,30.16,2.5,ENE,12.7,24.2,0.15,Rain,Rain,70,2013-08-25 08:25:00
4:34 AM,75.2,73.4,94,30.16,7.0,ENE,9.2,-,0.15,Rain,Light Rain,60,2013-08-25 08:34:00
4:41 AM,75.2,73.4,94,30.16,10.0,NNE,9.2,-,0.15,,Overcast,30,2013-08-25 08:41:00
4:53 AM,77.0,72.0,84,30.17,10.0,NE,11.5,-,0.15,,Overcast,40,2013-08-25 08:53:00
5:53 AM,79.0,69.1,72,30.19,10.0,ENE,13.8,-,0.00,,Overcast,60,2013-08-25 09:53:00
6:53 AM,79.0,69.1,72,30.19,10.0,ENE,15.0,-,N/A,,Mostly Cloudy,60,2013-08-25 10:53:00
7:53 AM,79.0,70.0,74,30.21,10.0,NE,9.2,-,N/A,,Mostly Cloudy,40,2013-08-25 11:53:00
8:53 AM,80.1,70.0,71,30.21,10.0,NE,13.8,-,N/A,,Mostly Cloudy,50,2013-08-25 12:53:00
9:53 AM,82.0,71.1,69,30.22,10.0,ENE,15.0,24.2,N/A,,Mostly Cloudy,60,2013-08-25 13:53:00
10:53 AM,82.9,72.0,69,30.24,10.0,NE,18.4,27.6,N/A,,Mostly Cloudy,40,2013-08-25 14:53:00
11:53 AM,82.9,72.0,69,30.24,10.0,ENE,16.1,26.5,N/A,,Overcast,60,2013-08-25 15:53:00
12:53 PM,82.0,71.1,69,30.24,10.0,NE,17.3,23.0,N/A,,Mostly Cloudy,40,2013-08-25 16:53:00
1:07 PM,82.4,71.6,70,30.23,10.0,NNE,17.3,23.0,N/A,,Mostly Cloudy,30,2013-08-25 17:07:00
1:48 PM,82.4,71.6,70,30.22,10.0,NE,17.3,28.8,N/A,,Mostly Cloudy,40,2013-08-25 17:48:00
1:53 PM,82.9,71.1,67,30.22,10.0,NE,18.4,28.8,N/A,,Mostly Cloudy,50,2013-08-25 17:53:00
2:33 PM,80.6,69.8,70,30.22,10.0,NE,18.4,26.5,N/A,,Overcast,40,2013-08-25 18:33:00
2:53 PM,81.0,70.0,69,30.21,10.0,NE,17.3,25.3,N/A,,Overcast,40,2013-08-25 18:53:00
3:53 PM,81.0,69.1,67,30.20,10.0,NE,13.8,25.3,N/A,,Mostly Cloudy,40,2013-08-25 19:53:00
4:26 PM,80.6,68.0,65,30.20,10.0,NE,15.0,25.3,N/A,,Mostly Cloudy,50,2013-08-25 20:26:00
4:53 PM,81.0,69.1,67,30.20,10.0,NE,18.4,27.6,N/A,,Scattered Clouds,50,2013-08-25 20:53:00
5:53 PM,80.1,68.0,67,30.20,10.0,NE,16.1,23.0,N/A,,Clear,40,2013-08-25 21:53:00
6:53 PM,80.1,68.0,67,30.19,10.0,NE,17.3,24.2,N/A,,Partly Cloudy,40,2013-08-25 22:53:00
7:53 PM,78.1,69.1,74,30.20,10.0,NE,12.7,19.6,N/A,,Partly Cloudy,40,2013-08-25 23:53:00
8:53 PM,78.1,70.0,76,30.22,10.0,NNE,12.7,-,N/A,,Mostly Cloudy,30,2013-08-26 00:53:00
9:05 PM,78.8,71.6,78,30.22,10.0,NE,15.0,21.9,0.00,Rain,Light Rain,50,2013-08-26 01:05:00
9:15 PM,77.0,69.8,78,30.22,10.0,NE,12.7,20.7,0.00,,Mostly Cloudy,40,2013-08-26 01:15:00
9:53 PM,78.1,66.9,68,30.23,10.0,NE,15.0,19.6,0.00,,Mostly Cloudy,50,2013-08-26 01:53:00
10:53 PM,77.0,66.9,71,30.24,10.0,NE,10.4,-,N/A,,Overcast,40,2013-08-26 02:53:00
11:53 PM,77.0,70.0,79,30.23,10.0,NNE,16.1,24.2,N/A,,Overcast,30,2013-08-26 03:53:00